User: anonymous   Login
Location: Unspecified
(0.0000°N, 0.0000°E)
Time: 02:58:50
(UTC+00:00)
Language:

KUIPER-00248 - Orbit

View from above orbital plane
View from above orbital plane
View from above satellite
View from above satellite

Ground track
Ground track

The orbit is defined by the following mean orbital elements,

1 67153U          26145.58335647 +.00000000 +00000-0 -21526-3 0 00004
2 67153  51.8988  59.9439 0001068  52.6461 234.8853 14.80906589    04
Epoch (UTC): 25 May 2026 14:00:01
Eccentricity: 0.0001068
inclination: 51.8988°
perigee height: 626 km
apogee height: 627 km
right ascension of ascending node: 59.9439°
argument of perigee: 52.6461°
revolutions per day: 14.80906589
mean anomaly at epoch: 234.8853°

The dashed part of the orbit path shows where the satellite is in the earth's shadow,  

DLR